Regional Weather Roundup
Issued by NWS

Home | Current Version | Previous Version | Graphics & Text | Print | Product List | Glossary On
Versions: 1 2 3 4 5 6 7 8 9 10 11 12 13 14 15 16 17 18 19 20 21 22 23 24 25 26 27 28 29 30 31 32 33 34 35 36 37 38 39 40 41 42 43 44 45 46 47 48 49 50
000
ASUS45 KTFX 200404
RWRMT
MONTANA HOURLY WEATHER ROUNDUP
NATIONAL WEATHER SERVICE GREAT FALLS MT
1004 PM MDT TUE AUG 19 2014

NOTE: "FAIR" INDICATES FEW OR NO CLOUDS BELOW 12000 FEET WITH NO
SIGNIFICANT WEATHER AND/OR OBSTRUCTIONS TO VISIBILITY.

* THESE STATIONS ARE NOT UNDER NWS QUALITY CONTROL. THEY DO NOT
   REPORT WEATHER SUCH AS PRECIPITATION OR FOG.

MTZ001>007-043-200500-
WEST OF THE DIVIDE
CITY           SKY/WX    TMP DP  RH WIND       PRES   REMARKS
KALISPELL      MOCLDY    64  57  78 N3        29.77R
MISSOULA       PTCLDY    68  45  44 N5        29.77R
BUTTE          CLOUDY    63  43  48 NW3       29.92R
MULLAN PASS    PTCLDY    57  48  72 N6        29.93R
* LINCOLN      N/A       67  43  42 S6         N/A
* LOOKOUT PASS N/A       61  54  78 NW1G6      N/A
* POLSON       N/A       60  50  70 S1         N/A
* RONAN APT    PTCLDY    61  52  72 N/A        N/A
* SEELEY LAKE  N/A       60  44  56 NE1        N/A
* THOMP F APT  MOCLDY    52  47  83 N8G18      N/A
* YAAK HILL    N/A       65  51  61 E2G7       N/A
$$

MTZ008-052>055-200500-
SOUTHWEST MONTANA
CITY           SKY/WX    TMP DP  RH WIND       PRES   REMARKS
BOZEMAN        CLOUDY    63  52  68 SE12      29.86R
DILLON         CLOUDY    61  48  62 SW7       29.91R
W YELLOWSTONE  LGT RAIN  50  48  93 W5        30.10R
* THREE FORKS  CLOUDY    66  63  90 N/A        N/A
* BOULDER HILL N/A       63  39  41 S12        N/A
* RAYNOLDS PAS N/A       50  16  26 E4         N/A
* WHITEHALL    N/A       64  51  63 NE3G8      N/A
* WISE RIVER   N/A       59  49  70 SE4        N/A
$$

MTZ009>010-012-014-046-048-049-054-200500-
EAST SLOPES AND CENTRAL MONTANA
CITY           SKY/WX    TMP DP  RH WIND       PRES   REMARKS
CUT BANK       MOCLDY    61  48  62 NW15      29.77R
GREAT FALLS    MOCLDY    70  46  42 N7        29.76R
HELENA         CLOUDY    72  50  46 W5        29.78R
MALMSTROM AFB  LGT RAIN  72  48  43 VRB7G14   29.77R
* CONRAD       PTCLDY    70  50  49 N/A        N/A
* DEARBORN     N/A       78  41  27 SW1G9      N/A
* EAST GLACIER N/A       54  50  86 VRB6       N/A
* MONARCH      N/A       67  35  31 S12G19     N/A
* PENDROY      N/A       68  43  40 NW14G24    N/A
* ROGERS PASS  N/A       63  42  46 SW1        N/A
* SAINT MARY   N/A       56  53  90 S5         N/A
* SWEET GRASS  N/A       65  53  65 NW9G17     N/A
$$

MTZ011-013-016-021-035-040-045-047-050-051-200500-
NORTH CENTRAL MONTANA
CITY           SKY/WX    TMP DP  RH WIND       PRES   REMARKS
HAVRE          PTCLDY    66  48  52 S8        29.63S
LEWISTOWN      MOCLDY    70  41  35 SW9       29.76S
* CHESTER      N/A       72  44  37 W11G21     N/A
* DENTON       N/A       73  40  30 SW10       N/A
* GEYSER       N/A       72  38  29 SW9G17     N/A
* JUDITH GAP   N/A       69  39  34 E6         N/A
* LOMA         N/A       76  48  37 NW13G20    N/A
$$

MTZ017>020-022>027-061-062-200500-
NORTHEAST MONTANA
CITY           SKY/WX    TMP DP  RH WIND       PRES   REMARKS
GLASGOW        PTCLDY    73  46  38 NE5       29.60S
GLENDIVE       MOCLDY    75  55  50 S6        29.67S
JORDAN         CLOUDY    70  57  64 CALM      29.63S
SIDNEY         PTCLDY    73  59  62 S5        29.65S
WOLF POINT     PTCLDY    70  46  42 CALM      29.59S
* BEAVER HILL  N/A       75  56  52 SE13       N/A
* CIRCLE       N/A       71  53  53 N/A        N/A
* SACO         N/A       74  51  45 NW3        N/A
$$

MTZ028>042-056>058-200500-
SOUTHCENTRAL AND SOUTHEAST MONTANA
CITY           SKY/WX    TMP DP  RH WIND       PRES   REMARKS
BAKER          MOCLDY    68  57  68 SE8       29.71F
BILLINGS       CLOUDY    75  43  32 SW8       29.75S
LIVINGSTON     CLOUDY    70  43  38 W20G25    29.85S
MILES CITY     CLOUDY    77  52  42 CALM      29.64R
* LAUREL APT   CLOUDY    75  39  27 SW5        N/A
* ROUNDUP APT  CLOUDY    77  39  26 N/A        N/A
* HYSHAM       N/A       77  39  26 W12G20     N/A
* LAME DEER    N/A       75  41  30 SW8G16     N/A
* REED POINT   N/A       70  43  38 W3         N/A
* ROSCOE HILL  N/A       63  39  41 W4         N/A
$$

REGIONAL REPORTS...DAKOTAS
CITY           SKY/WX    TMP DP  RH WIND       PRES   REMARKS
WILLISTON      CLEAR     79  61  54 SE12      29.65S
DICKINSON      PTCLDY    68  59  73 SE8       29.70S
BEACH          N/A       66  59  78 SE10      29.70F
CROSBY         CLEAR     66  64  93 SE8       29.66F
TIOGA          CLEAR     68  59  73 SE8       29.72F
WATFORD CITY   CLEAR     72  63  73 SE12      29.65S
BISMARCK       PTCLDY    70  63  79 E6        29.73R
GRAND FORKS    CLEAR     70  64  81 SE7       29.75S
FARGO          CLEAR     70  64  81 SE5       29.76S
BUFFALO SD     PTCLDY    73  55  53 SE12      29.67F
RAPID CITY     PTCLDY    70  61  73 SE6       29.75S
$$

REGIONAL REPORTS...WYOMING/IDAHO/WASHINGTON
CITY           SKY/WX    TMP DP  RH WIND       PRES   REMARKS
GILLETTE       CLOUDY    77  37  24 SW13      29.77S
SHERIDAN       CLOUDY    72  46  40 SW5       29.78R
CODY           CLOUDY    72  41  33 CALM      29.85S
YELLOWSTONE LA CLOUDY    55  41  59 W12G20    30.13R
SALMON         MOCLDY    61  54  78 CALM      29.86F
MULLAN PASS    PTCLDY    57  48  72 N6        29.93S
SAND POINT     CLOUDY    64  55  73 NE8       29.70F
SPOKANE        MOCLDY    73  50  44 NE6       29.70R
$$

REGIONAL REPORTS...ALBERTA
CITY           SKY/WX    TMP DP  RH WIND       PRES   REMARKS
MEDICINE HAT   TSTM      61  57  87 N14G25    29.66R

$$




USA.gov is the U.S. government's official web portal to all federal, state and local government web resources and services.